Regional Weather Roundup
Issued by NWS Jackson, KY

Home | Current Version | Previous Version | Text Only | Print | Product List | Glossary On
Versions: 1 2 3 4 5 6 7 8 9 10 11 12 13 14 15 16 17 18 19 20 21 22 23 24 25 26 27 28 29 30 31 32 33 34 35 36 37 38 39 40 41 42 43 44 45 46 47 48 49 50
000
ASUS43 KJKL 201010
RWRJKL

EAST KENTUCKY HOURLY WEATHER ROUNDUP
NATIONAL WEATHER SERVICE JACKSON KY
600 AM EDT SUN AUG 20 2017

NOTE: "FAIR" INDICATES FEW OR NO CLOUDS BELOW 12,000 FEET WITH
NO SIGNIFICANT WEATHER AND/OR OBSTRUCTIONS TO VISIBILITY.

* THESE REPORTS ARE NOT UNDER NWS QUALITY CONTROL AND MAY NOT
  REPORT WEATHER SUCH AS PRECIPITATION AND FOG.

KYZ079-080-083-085-087-088-110-112-115-119-120-201100
...EASTERN KENTUCKY...

CITY           SKY/WX    TMP DP  RH WIND       PRES   REMARKS
JACKSON        CLEAR     69  66  90 CALM      30.10R
LONDON         CLEAR     66  64  93 CALM      30.09R FOG
SOMERSET*      CLEAR     63  63 100 CALM      30.09R FOG
MONTICELLO*    CLEAR     63  63 100 W3        30.09R FOG
WILLIAMSBURG*  PTSUNNY   66  66 100 CALM      30.09R
MIDDLESBORO*   CLOUDY    66  66 100 CALM      30.12R FOG
HARLAN APT*    CLOUDY    64  63  94 CALM      30.14R VSB 3/4
PIKE CO APT*     N/A     67  67 100 S5        30.11R
BIG SANDY APT* SUNNY     68  68 100 CALM      30.10R
MOREHEAD APT*  MOSUNNY   68  66  94 CALM      30.09R FOG
$$

KYZ035-036-041-042-044-050-067-078-099-201100
...CENTRAL KENTUCKY...

CITY           SKY/WX    TMP DP  RH WIND       PRES   REMARKS
MT STERLING*   PTCLDY    66  64  94 CALM      30.08S
FLEMING/MASON* PTCLDY    66  66  99 SE3       30.07S
DANVILLE*      CLEAR     64  64 100 S3        30.08R
LEXINGTON      CLEAR     68  64  87 S5        30.06S
FRANKFORT      CLEAR     67  64  90 CALM      30.04R
LOUISVILLE     CLEAR     73  69  87 SE5       30.02R
LEBANON*         N/A     68  66  94 CALM      30.05S
GLASGOW*       CLEAR    N/A N/A N/A CALM      30.04R HAZE
BOWLING GREEN  CLEAR     69  69 100 CALM      30.03S FOG
$$

KYZ091>093-OHZ055-061-077-WVZ005-015-034-035-042-201100
...SOUTHERN OHIO/WEST VIRGINIA...

CITY           SKY/WX    TMP DP  RH WIND       PRES   REMARKS
COVINGTON      CLEAR     70  68  93 S6        30.04S
COLUMBUS       PTCLDY    66  63  90 S3        30.06R
DAYTON         PTCLDY    65  60  84 E6        30.07R
WILMINGTON     PTCLDY    66  65  96 E5        30.06S
HUNTINGTON     CLEAR     67  65  93 CALM      30.06S
CHARLESTON     MOCLDY    66  65  96 CALM      30.08R FOG
PINEVILLE*     CLOUDY    64  63  97 MISG      30.19R FOG
BECKLEY        CLEAR     62  59  90 CALM      30.17R
BLUEFIELD      CLEAR     63  60  90 W5        30.19R
LOGAN CO APT*  FOG       66  66 100 CALM      30.12R VSB<1/4
$$

VAZ002-007-008-TNZ017-027-036-066-071-201100
...SOUTHWEST VIRGINIA/EAST TENNESSEE...

CITY           SKY/WX    TMP DP  RH WIND       PRES   REMARKS
WISE*          CLEAR     66  64  94 CALM      30.19R
JONESVILLE*      N/A     63  63 100 CALM      30.14R FOG
ABINGDON*      CLEAR     65  65  99 E5        30.16R
BRISTOL        PTCLDY    64  64 100 CALM      30.12R FOG
MORRISTOWN*    MOSUNNY   66  66 100 CALM      30.09R
SEVIERVILLE*   SUNNY     63  63 100 CALM      30.09R
KNOXVILLE      CLEAR     67  65  93 E3        30.07R
LAFOLLETTE*    SUNNY     66  64  94 CALM      30.13R FOG
OAK RIDGE      CLOUDY    69  67  93 CALM      30.10R FOG
CROSSVILLE     CLEAR     63  62  97 CALM      30.12R
NASHVILLE      CLEAR     73  70  90 CALM      30.03S
$$

...KEY TO REMARKS...
VSB - VISIBILITY IN MILES
WCI - WIND CHILL INDEX
HX  - HEAT INDEX

$$



USA.gov is the U.S. government's official web portal to all federal, state and local government web resources and services.